Regional Weather Roundup
Issued by NWS

Home | Current Version | Previous Version | Graphics & Text | Print | Product List | Glossary On
Versions: 1 2 3 4 5 6 7 8 9 10 11 12 13 14 15 16 17 18 19 20 21 22 23 24 25 26 27 28 29 30 31 32 33 34 35 36 37 38 39 40 41 42 43 44 45 46 47 48 49 50
000
ASUS45 KSLC 210410
RWRUT

UTAH REGIONAL WEATHER ROUNDUP
NATIONAL WEATHER SERVICE SALT LAKE CITY UT
1000 PM MDT MON OCT 20 2014

UTZ001>011-023>025-210500-

NORTHERN UTAH

CITY           SKY/WX    TMP DP  RH WIND       PRES   REMARKS
BRIGHAM CITY   CLEAR     57  40  53 CALM      29.89F
HILL AFB       CLEAR     63  35  35 SE7       29.93S
LOGAN          CLEAR     50  40  68 CALM      29.91F
OGDEN          CLEAR     61  37  41 S10       29.90S
PROVO AIRPORT  CLEAR     63  39  42 S14       29.95S
SALT LAKE CITY PTCLDY    61  38  42 SE7       29.91R
VERNAL         MOCLDY    52  38  58 W7        30.05S
WENDOVER       PTCLDY    57  37  47 CALM      29.86S
HEBER CITY     CLEAR     50  36  57 NE3       30.02S
WEST JORDAN    CLEAR     63  45  51 S12       29.94S

$$

UTZ012>022-026-027-210500-

SOUTHERN/CENTRAL UTAH

CITY           SKY/WX    TMP DP  RH WIND       PRES   REMARKS
BLANDING       CLEAR     55  38  52 E7        30.19S
BRYCE CANYON   CLEAR     36  30  79 W5        30.19R WCI  32
CEDAR CITY     CLEAR     62  36  37 SE15      30.02R
DELTA          MOCLDY    64  37  36 SE14      29.95R
HANKSVILLE       N/A     55  36  47 CALM      30.03S
MILFORD        PTCLDY    62  38  40 S12       29.98R
MOAB/CYNLANDS  CLEAR     55  36  48 CALM      30.01R
PRICE          CLEAR     52  35  52 NE9       30.09R
ST GEORGE      CLEAR     70  37  30 S3        29.91R

$$

REGIONAL REPORTS     COLORADO/ARIZONA

CITY           SKY/WX    TMP DP  RH WIND       PRES   REMARKS
CRAIG, CO      CLEAR     40  34  79 CALM      30.13R
GRAND JUNCTION PTCLDY    56  37  49 E6        30.05R
RIFLE          MOCLDY    51  38  60 N3        30.11R
MONTROSE       PTCLDY    58  38  47 SE14      30.14S
CORTEZ         CLEAR     51  41  68 NE8       30.14R
PAGE, AZ       NOT AVBL
GRAND CANYON   PTCLDY    42  33  70 CALM      30.16R
KINGMAN        CLEAR     68  44  42 S10       29.96R
FLAGSTAFF      CLEAR     45  39  79 CALM      30.18R

$$

REGIONAL REPORTS    NEVADA/IDAHO/WYOMING

CITY           SKY/WX    TMP DP  RH WIND       PRES   REMARKS
LAS VEGAS, NV  PTCLDY    79  39  23 S12       29.81R
ELY            MOCLDY    58  33  39 S18       29.99S
ELKO           MOCLDY    67  30  25 S12       29.82F
POCATELLO, ID  CLEAR     67  35  30 S14       29.86F
BURLEY         PTCLDY    66  35  31 S14       29.80F
EVANSTON, WY   CLEAR     51  32  48 S7        30.09S
ROCK SPRINGS   CLEAR     51  31  46 S10       30.09R
KEMMERER       MOCLDY    50  32  50 CALM      30.10S

$$



USA.gov is the U.S. government's official web portal to all federal, state and local government web resources and services.